Location: Guayaquil
(2.1667°S, 79.9000°W)
Time: 20:21:58
(UTC-05:00)

Tiangong 1 - Visible Passes

Search period start: 23 September 2017 00:00
Search period end: 03 October 2017 00:00
Orbit: 303 x 328 km, 42.8° (Epoch: 23 September)

Date Brightness Start Highest point End Pass type
(mag) Time Alt. Az. Time Alt. Az. Time Alt. Az.
26 Sep 2.6 18:35:53 10° S 18:37:43 16° SE 18:39:31 10° E visible
27 Sep 0.5 18:48:08 10° SW 18:50:50 80° SE 18:53:15 12° NE visible
28 Sep 3.3 19:01:47 10° W 19:03:51 19° NW 19:05:53 10° N visible
01 Oct 2.0 05:12:13 14° NNW 05:14:13 37° NE 05:16:44 10° ESE visible
02 Oct 1.4 05:25:24 18° WNW 05:26:55 34° SW 05:29:25 10° SSE visible
